DELTA 1 R/B, 862

Orbit data source: Space-Track

DELTA 1 R/B, 862 is space debris in HEO originally from a launch on Wed, 19 Aug 1964 UTC launched from the Air Force Eastern Test Range (AFETR). Debris objects in space refer to the collection of defunct objects orbiting the Earth. Examples of debris include non-operational satellites, rocket bodies, and fragments generated from explosions, collisions, or faulty payload assembly.

Loading next visibility...
Identifier
862, 1964-047B
Orbit
HEO
Country
Flag of USUS
Related business
Manufacturer
ABL
Mission
Spacecraft
Bus & Motor
ALTAIR, Unknown motor
Mass
~38 kg wet, ~38 kg dry
Launch date (UTC)
1964-08-19 (62 years ago)
Launch vehicle
Unknown
Launch site
Air Force Eastern Test Range (AFETR)
Object type
Payload
Rocket body
Debris
Shape & HBR
Unknown
Radar Cross Section
Medium (>0.1 m² and <1 m²)

Expand to show TLE details & history
Last TLE update: 17 hours ago

TLE from 17 hours ago
0 DELTA 1 R/B
1 00862U 64047B   26070.87951766 -.00000540  00000-0  00000-0 0  9991
2 00862  16.8278   0.8222 7117898 334.5183   3.1425  2.05115607256164
Epoch: 2026-03-11T21:06Z
TLE epoch observation values (Epoch: 2026-03-11T21:06:30.325Z)
Latitude
-0.00152°
Longitude
-125.33042°
Altitude
1,455.76 km
Speed
9.302 km/s
True Right ascension
00h 03m 20s
True Declination
0° 00' 05"
Sunlit
Object was in daylight at epoch
Visualization orbit readout
Latitude
Unknown
Longitude
Unknown
Altitude
Unknown
Speed
Unknown
Apparent Right ascension
Unknown
Apparent Declination
Unknown
Sunlit
N/A
Visualization observer readout
Local Sidereal Time
18:13:07
Azimuth
Unknown
Elevation
Unknown
Doppler factor
Unknown
Orbital elements
Apogee altitude
38,419.718 km
Perigee altitude
1,164.377 km
Semi-major axis
26,170.185 km
Eccentricity
0.71179
Inclination
16.8278°
RAAN
0.8222°
Arg. of periapsis
334.5183°
True anomaly
25.82482°
Mean anomaly
3.1425°
Eccentric anomaly
10.74809°
Mean motion
0.51266 °/min
Orbital period
702.21 mins
BSTAR
0
Loading maneuver chart data...
Computing Atmospheric mass density...
Loading historical data...
Loading historical data...
Loading historical data...
Loading historical data...
Loading historical data...
Loading historical data...
Loading historical data...
Other satellites on launch #47 in the year 1964 (1964-08-19 UTC)

Documentation

Showing up to 5 results
|